{"data":{"norad_id":50002,"intl_designator":"2021-123B","name":"EXPRESS AMU-3","alt_names":[],"object_type":"PAYLOAD","status":"ACTIVE","operator":null,"country":"CIS","launch_date":"2021-12-13","launch_site_code":"TYMSC","launch_vehicle":null,"mission":null,"orbit_class":"UNKNOWN","rcs_meters":null,"size_class":null,"mass_kg":null,"dimensions":null,"purposes":["comms"],"wikipedia_slug":null,"has_3d_model":false,"image_url":null,"decayed_at":null,"tle_current":{"epoch":"2026-05-22T01:15:45.683712Z","epoch_age_seconds":326098,"freshness":"STALE","line1":"1 50002U 21123B   26142.05261208 -.00000320  00000+0  00000+0 0  9999","line2":"2 50002   0.0266 279.2437 0001332 150.7075 290.0582  1.00268090  6762","mean_motion":1.0026809,"eccentricity":0.0001332,"inclination_deg":0.0266,"raan_deg":279.2437,"arg_perigee_deg":150.7075,"mean_anomaly_deg":290.0582,"bstar":0,"rev_number":676,"period_min":1436.1498259317,"perigee_km":35782.014355357,"apogee_km":35793.247315909,"semimajor_km":42165.767835633,"source":"CELESTRAK","updated_at":"2026-05-25T13:38:14.104639Z"}}}